Vorticity
nan nan nan nan nan nan nan nan nan nan nan nan nan nan nan nan nan nan nan nan nan nan nan nan nan nan nan nan nan nan nan nan nan nan nan nan nan nan nan nan nan nan nan nan nan nan nan nan nan nan nan nan nan nan
nan 9 10 10 9 8 7 7 9 8 7 7 7 8 8 8 11 21 19 9 13 15 10 11 10 11 10 5 5 17 13 7 9 8 9 11 9 16 12 6 9 16 15 14 10 3 7 16 13 12 18 14 13 nan
nan 9 10 10 10 8 7 7 7 6 6 7 8 8 8 8 10 18 17 9 11 9 13 12 16 15 15 14 8 7 10 11 13 13 8 9 10 10 10 10 9 9 13 15 8 8 10 12 8 10 10 15 28 nan
nan 10 10 11 11 8 7 8 7 6 6 7 8 8 8 9 9 15 18 12 11 11 11 5 8 13 12 14 14 12 9 9 12 11 12 10 10 12 10 13 11 7 8 13 11 10 7 6 10 9 10 10 12 nan
nan 11 11 12 12 8 7 8 7 6 7 7 8 8 8 8 15 23 18 10 11 12 9 7 11 17 12 7 9 12 12 10 9 10 12 10 7 10 12 11 8 14 14 11 11 11 13 9 6 6 12 14 8 nan
nan 10 12 15 12 8 8 8 7 8 8 8 8 8 8 8 20 21 12 12 9 10 12 12 14 13 14 11 8 11 11 9 12 11 8 10 11 12 12 11 9 9 15 14 13 14 10 15 12 10 16 12 12 nan
nan 10 13 15 10 8 9 8 8 8 8 8 9 9 9 12 16 12 8 2 8 13 10 10 13 17 11 5 8 11 12 13 8 9 12 10 9 12 13 10 12 13 10 10 12 11 10 14 12 15 17 11 10 nan
nan 11 15 12 8 9 9 8 8 8 7 8 9 8 15 20 15 12 16 17 9 9 10 12 10 10 13 10 11 11 9 10 12 10 10 13 10 10 10 9 9 12 7 7 12 15 12 7 9 16 15 11 9 nan
nan 10 11 9 8 10 10 7 8 8 7 7 12 20 23 19 17 16 15 16 9 10 9 11 14 6 11 15 10 11 13 9 13 11 11 11 11 11 12 9 10 17 12 7 6 7 9 9 9 9 11 13 13 nan
nan 10 9 9 9 10 10 7 8 9 9 16 19 19 13 11 11 9 9 8 11 11 12 10 9 12 10 11 11 13 12 12 13 8 13 10 9 8 13 22 20 17 12 10 8 7 9 9 10 13 13 10 10 nan
nan 12 10 9 10 10 8 7 8 10 15 18 12 10 9 11 11 11 12 10 10 11 12 14 11 9 8 14 13 10 10 11 10 16 12 7 10 11 12 16 17 14 13 14 13 11 10 9 7 11 13 16 13 nan
nan 15 12 10 10 9 8 9 8 7 12 11 10 9 14 12 12 13 11 11 13 10 12 15 13 10 10 11 11 12 12 11 10 12 12 13 8 8 13 8 9 10 10 9 9 9 9 11 12 10 10 12 16 nan
nan 18 13 11 10 9 9 11 7 -0 11 16 12 12 13 8 12 14 10 10 9 11 11 12 16 11 9 12 13 12 11 10 11 15 12 9 10 8 10 8 10 8 9 9 9 9 9 10 8 9 10 10 12 nan
nan 18 15 11 10 9 11 10 6 10 12 12 9 13 11 10 11 11 10 12 11 11 12 10 12 14 9 11 12 11 10 12 14 10 9 10 11 9 12 11 8 6 6 8 9 10 10 9 8 9 10 10 12 nan
nan 19 12 10 10 11 11 8 7 9 10 12 12 14 11 11 11 12 11 10 14 12 8 10 13 13 10 12 10 10 15 9 10 14 10 11 9 7 6 8 7 10 10 10 10 10 9 10 10 8 9 11 12 nan
nan 5 12 20 12 11 7 5 8 10 11 13 9 9 13 13 13 16 12 9 9 11 12 13 12 9 14 11 11 12 12 13 12 12 11 9 9 10 9 9 10 10 10 11 11 12 10 11 12 11 10 11 10 nan
nan 16 26 14 11 9 2 4 11 11 10 10 12 12 15 10 10 11 12 10 12 14 14 10 13 11 10 13 11 13 16 12 11 11 12 10 7 9 12 11 11 11 10 11 13 14 13 13 12 12 16 17 13 nan
nan 26 17 5 1 4 9 9 12 13 11 11 10 11 15 13 10 11 11 11 11 11 15 14 9 12 13 11 14 12 12 12 10 9 10 9 9 11 12 12 11 12 13 15 13 12 13 16 17 18 18 12 9 nan
nan 19 13 -4 -2 9 11 10 12 11 13 11 12 16 12 10 12 12 11 14 15 13 8 12 14 11 13 13 11 10 10 11 10 10 11 10 12 13 13 14 14 16 18 19 17 14 14 15 17 16 12 12 12 nan
nan 14 11 -6 -4 14 12 14 12 11 12 11 11 16 14 13 11 10 10 12 15 12 11 15 14 14 13 11 11 12 10 10 10 11 13 13 12 12 14 15 17 17 15 15 14 15 16 12 12 13 14 14 13 nan
nan 12 10 7 10 11 10 14 14 11 10 13 12 11 12 11 11 10 8 12 14 13 11 12 10 10 11 14 12 11 11 10 11 12 10 10 12 15 13 12 13 13 13 12 12 11 12 12 13 13 13 13 13 nan
nan 11 1 10 12 14 10 15 12 12 13 10 13 12 11 12 10 10 12 13 12 12 11 10 9 9 10 11 11 11 12 12 14 14 14 13 12 13 12 13 12 11 13 13 12 11 10 12 13 12 11 11 12 nan
nan 6 12 11 9 11 16 14 8 11 12 12 14 14 12 11 10 13 15 12 12 12 11 10 12 12 12 11 14 13 11 13 17 15 13 15 14 12 12 13 13 13 11 10 13 13 12 11 12 12 11 12 11 nan
nan 6 12 13 13 7 12 13 13 12 12 14 14 12 12 11 12 14 12 12 12 11 11 13 13 13 15 14 12 11 12 15 13 10 10 14 13 12 12 11 12 12 13 12 12 12 11 10 11 12 11 11 10 nan
nan 13 14 12 11 14 14 11 10 12 12 11 15 13 11 10 12 12 13 13 12 12 14 16 14 12 12 12 12 12 12 11 12 10 10 14 12 11 11 12 13 11 10 11 12 12 10 9 9 7 9 10 11 nan
nan 16 9 10 15 15 14 12 12 11 11 11 13 13 11 11 11 12 12 12 12 13 15 15 13 12 13 13 11 10 11 10 10 12 13 12 12 12 12 9 7 10 14 10 10 11 12 11 11 14 17 19 15 nan
nan 11 9 14 14 12 12 12 14 12 13 14 13 11 10 11 12 13 13 13 14 14 14 13 13 11 11 10 10 12 12 13 11 7 14 16 12 11 11 13 13 16 16 13 13 19 18 13 11 13 18 22 15 nan
nan 13 13 11 11 12 12 12 11 12 13 13 12 12 12 12 11 13 12 11 14 14 11 11 12 12 10 10 11 12 14 13 12 14 16 17 16 10 10 14 15 12 13 17 17 17 17 17 16 12 11 12 13 nan
nan 13 12 13 13 12 12 12 14 15 14 13 13 14 13 12 13 12 11 12 11 10 11 12 12 11 9 12 13 14 15 16 17 15 11 9 9 14 15 10 10 8 9 8 11 13 12 16 15 13 11 10 12 nan
nan 13 10 13 14 13 15 12 9 14 16 15 13 12 12 15 16 11 12 13 11 11 10 10 12 12 11 12 11 12 18 22 20 15 14 13 12 14 14 13 11 10 10 9 8 6 8 10 8 11 12 13 16 nan
nan 9 10 12 13 13 14 15 15 14 11 12 14 14 12 11 12 15 12 11 10 10 9 10 15 17 21 18 16 9 8 12 18 18 16 14 16 17 17 17 15 14 14 13 12 12 11 12 17 17 13 14 14 nan
nan 13 13 11 10 11 11 13 13 12 12 12 13 10 11 13 13 14 18 15 9 12 12 12 16 19 17 15 15 16 16 14 10 10 14 16 13 13 14 15 15 14 14 20 20 15 15 14 14 16 16 15 14 nan
nan nan nan nan nan nan nan nan nan nan nan nan nan nan nan nan nan nan nan nan nan nan nan nan nan nan nan nan nan nan nan nan nan nan nan nan nan nan nan nan nan nan nan nan nan nan nan nan nan nan nan nan nan nan
CAPE
38 49 48 37 14 7 0 0 0 2 0 2 3 1 2 3 2 0 0 0 0 0 0 0 0 0 0 0 0 0 0 0 0 0 0 0 0 0 0 0 0 0 0 0 0 0 0 1004 1230 378 122 281 0 18
37 41 47 43 32 3 0 0 0 0 0 4 2 2 1 1 1 0 0 0 0 0 0 0 0 0 0 0 0 0 0 0 0 6 0 0 0 0 0 0 0 0 0 0 0 0 382 366 559 293 188 581 378 57
38 49 49 48 38 0 0 0 0 0 0 3 1 1 0 1 0 0 0 0 0 0 0 0 0 0 0 0 0 0 0 0 0 0 0 0 12 0 0 0 0 0 0 56 217 288 0 0 304 621 912 1146 1051 323
42 45 42 45 40 2 2 3 0 0 0 1 1 1 0 0 0 0 0 0 0 0 0 0 0 0 0 0 0 0 0 0 0 0 0 0 0 0 0 0 0 0 1 56 148 99 86 7 11 213 1130 1292 1186 853
48 45 48 50 41 20 7 0 0 0 1 1 1 0 0 0 0 0 0 0 0 0 0 0 0 0 0 0 0 0 0 0 0 0 0 0 0 0 0 0 0 0 57 26 109 15 190 211 0 47 306 1339 1095 888
34 36 48 49 38 23 3 4 0 0 0 0 0 0 0 0 0 0 0 0 0 0 0 0 0 0 0 0 0 0 0 0 0 0 0 0 0 0 0 0 8 0 3 2 14 9 4 105 345 137 308 1047 774 440
17 6 42 44 33 16 8 0 0 0 0 0 0 0 0 0 0 0 0 0 0 0 0 0 0 0 0 0 0 0 0 0 0 0 0 0 0 0 0 0 1 0 0 0 0 0 0 8 10 26 852 771 579 332
9 0 36 35 24 23 12 0 0 2 0 0 0 0 0 0 0 0 0 0 0 0 0 0 0 0 0 0 0 0 0 0 0 0 0 0 0 0 0 0 0 0 0 0 0 0 0 0 0 0 202 464 451 327
8 10 34 24 21 26 19 7 0 2 2 0 0 0 0 0 0 0 0 0 0 0 0 0 0 0 0 0 0 0 0 0 0 0 0 0 0 0 0 0 0 0 0 0 0 0 0 0 0 0 1 125 275 353
27 19 24 15 16 19 20 5 2 3 0 0 0 0 0 0 0 0 0 0 0 0 0 0 0 6 0 0 8 22 0 0 0 0 0 0 0 0 0 0 0 0 0 0 0 0 0 0 0 0 0 0 0 13
62 37 27 18 11 15 19 5 6 0 0 0 0 0 0 0 0 0 0 0 0 0 0 0 0 0 0 0 0 4 8 6 8 0 7 0 0 16 0 0 0 0 0 0 0 0 0 0 0 0 0 0 0 15
74 67 39 20 16 13 15 4 10 0 0 0 0 0 0 0 0 0 0 0 0 0 0 0 0 0 7 0 2 6 1 0 0 0 33 6 0 0 0 0 0 0 0 0 0 0 0 0 0 0 0 2 4 16
81 73 40 26 17 11 16 17 5 0 0 0 0 0 0 0 0 0 0 0 0 0 141 28 31 12 58 0 0 0 0 0 8 19 14 20 0 0 0 0 0 0 0 0 0 0 0 0 0 0 0 0 9 20
70 72 48 29 18 19 28 17 0 0 0 0 6 0 0 0 0 0 0 1 13 36 12 0 21 16 0 13 0 10 0 8 43 0 12 8 0 0 0 0 0 0 0 0 0 0 0 0 0 0 0 0 0 12
83 76 49 32 32 44 34 6 0 0 0 1 5 4 0 0 0 0 0 0 8 0 0 1 13 0 1 29 0 1 39 1 23 0 79 1 0 0 0 0 0 0 0 0 0 0 0 0 0 0 0 0 0 5
76 55 6 35 64 50 16 0 0 0 1 4 0 0 0 0 0 0 0 0 0 0 0 3 9 1 0 1 2 13 16 28 1 0 0 0 0 0 0 0 0 0 0 0 0 0 0 0 0 0 0 0 0 0
11 1 35 71 67 19 0 0 0 0 0 0 0 0 0 0 4 13 1 0 0 0 2 0 2 7 0 12 7 5 0 0 0 0 1 0 0 0 0 0 0 0 0 0 2 1 3 6 5 1 0 0 0 0
12 14 61 56 0 0 0 0 0 0 0 0 0 0 11 2 3 5 7 4 2 0 2 6 0 2 2 6 9 0 0 0 0 0 0 0 0 0 0 0 0 0 0 1 5 1 0 0 0 0 0 0 0 0
1 11 39 0 0 0 0 0 0 0 2 0 0 0 11 2 0 0 0 0 0 0 0 0 0 0 0 0 0 0 0 0 0 0 0 0 0 0 0 0 0 2 8 19 13 1 4 7 2 4 2 0 0 0
45 18 0 0 0 0 28 0 0 3 1 4 2 0 0 3 0 0 0 0 0 0 0 0 0 0 0 0 0 0 0 0 0 0 0 0 0 1 1 1 1 2 0 1 0 0 1 1 1 1 1 1 2 2
0 0 0 0 0 0 0 6 0 3 0 1 0 0 0 0 12 0 0 0 0 0 0 0 0 0 0 0 0 0 0 0 0 2 2 0 0 1 0 0 0 0 0 1 1 1 1 1 1 1 1 1 1 1
0 0 0 0 0 7 0 0 2 0 11 0 5 1 3 3 0 0 0 0 0 0 0 0 0 0 0 0 0 0 0 1 0 0 0 0 0 0 0 1 0 0 0 1 1 1 1 0 0 0 0 0 0 0
0 0 0 0 1 0 0 0 0 4 7 1 0 0 0 0 0 0 0 0 0 0 0 0 0 0 0 0 0 1 0 0 6 0 0 0 0 0 0 0 0 0 0 0 0 0 0 0 0 0 0 0 0 0
0 0 4 2 0 0 0 6 0 0 0 0 0 0 0 0 0 0 0 0 0 0 0 0 0 0 0 0 0 0 0 0 0 0 0 0 1 1 0 0 0 0 0 0 0 0 0 0 0 0 0 0 0 0
0 0 0 0 0 2 6 0 0 0 0 0 0 0 1 0 0 0 0 0 0 0 0 0 0 0 0 0 0 0 0 0 0 0 0 0 0 0 0 0 0 0 0 0 0 0 0 0 0 2 8 6 5 3
0 0 0 14 9 14 2 0 0 3 2 14 6 0 0 0 1 0 0 0 0 0 1 3 6 3 0 0 0 0 0 0 0 1 2 2 0 0 0 0 0 0 0 3 9 8 2 0 0 5 9 13 2 0
0 8 14 0 4 2 0 0 0 0 2 5 2 4 0 0 0 0 0 0 0 4 11 3 1 0 0 0 0 0 0 1 9 3 3 0 0 4 23 27 38 25 18 24 26 0 1 2 0 3 1 4 7 0
0 0 1 0 0 0 0 3 0 2 2 9 7 2 9 0 0 0 0 0 1 0 0 0 2 0 0 0 1 10 7 6 8 2 0 0 0 0 0 0 0 0 0 0 0 0 7 10 9 7 1 0 0 0
0 0 0 0 0 2 1 0 6 0 0 0 5 0 0 0 0 0 0 0 0 0 0 0 0 2 3 0 3 13 6 3 0 0 0 0 0 0 0 0 0 0 0 0 0 0 0 0 0 0 0 0 0 0
0 0 3 14 10 5 3 1 14 6 1 0 0 0 1 0 0 0 0 0 0 0 0 3 13 16 24 36 50 30 0 0 0 0 0 0 0 0 0 0 0 0 0 0 0 0 0 0 0 0 0 0 0 0
0 0 2 15 14 16 14 5 0 0 1 1 0 0 0 0 0 0 0 0 0 0 0 0 6 4 3 2 5 0 0 0 0 0 0 0 0 0 0 0 0 0 0 0 0 1 0 0 2 2 1 0 0 0
14 10 21 13 18 16 17 3 7 1 4 3 0 0 0 1 4 0 0 0 0 0 1 4 11 0 0 0 0 0 0 0 0 0 0 0 0 0 0 0 0 0 0 0 0 1 1 0 0 0 0 0 0 0
29 15 1 0 9 16 0 0 0 1 1 0 0 0 0 0 1 0 0 0 0 0 0 0 0 0 0 0 0 0 0 0 0 0 0 0 0 0 0 0 0 0 0 0 0 0 0 0 0 0 0 0 0 0